Location: Dürabuch
(48.2640°N, 11.2185°E)
Time: 02:26:52
(UTC+00:00)

Cosmos 2360 Rocket - Pass Details

Date: 23 May 2024
Orbit: 832 x 846 km, 71.0° (Epoch: 13 June)

Event Time Altitude Azimuth Distance (km) Brightness Sun altitude
Rises 01:57:57 0° 329° (NNW) 3,416 5.6 -11.7°
Reaches altitude 10° 02:00:25 10° 326° (NNW) 2,478 4.9 -11.5°
Maximum altitude 02:06:00 60° 248° (WSW) 964 2.2 -10.9°
Drops below altitude 10° 02:11:33 10° 170° (S) 2,460 4.3 -10.3°
Sets 02:14:01 0° 166° (SSE) 3,390 5.0 -10.0°
